[[{"header":{"parameterUnit":"m.s-1","parameterCategory":1,"la1":30.2991,"la2":30.254,"lo1":-89.0895,"lo2":-89.0444,"dy":0.0017,"dx":0.0017,"nx":28,"ny":28,"refTime":"2025-03-13T09:00:00:Z","depth":0,"parameterNumber":2,"parameterNumberName":"U-component_of_WINDS"},"data":[0,0,0,0,0,0,0,0,0,0,0,0,0,0,0,0,0,0,0,0,0,0,0,0,0,0,0,0,0,0,0,0,0,0,0,0,0,0,0,0,0,0,0,0,0,0,0,0,0,0,0,0,0,0,0,0,0,0,-0.5334,-0.5334,0,-0.5391,-0.5392,-0.5392,-0.5395,-0.5394,-0.5393,-0.5393,-0.5454,-0.5457,-0.5459,0,0,0,0,0,0,0,0,0,0,0,0,0,-0.5229,-0.5231,-0.5334,-0.5334,-0.5335,-0.5391,-0.5392,-0.5392,-0.5395,-0.5394,-0.5393,-0.5392,-0.5454,-0.5456,-0.5459,0,0,0,0,0,0,0,0,0,0,0,0,0,-0.5279,-0.5232,-0.5334,-0.5343,-0.5344,-0.5391,-0.5392,-0.5393,-0.5395,-0.5394,-0.5393,-0.5392,-0.5453,-0.5456,-0.5459,-0.5501,0,0,-0.547,-0.5471,0,0,0,0,0,0,0,0,-0.5276,-0.5283,-0.5341,-0.5342,-0.5344,-0.5385,-0.5377,-0.5429,-0.5395,-0.5376,-0.5393,-0.5391,-0.5432,-0.5437,-0.545,-0.5504,-0.5507,-0.547,-0.5472,-0.5474,-0.5475,0,0,0,0,0,0,0,-0.5273,-0.5281,-0.5356,-0.5342,-0.5344,-0.5345,-0.5351,-0.5387,-0.5409,-0.5377,-0.5378,-0.5384,-0.5433,-0.5447,-0.5452,-0.5508,-0.547,-0.5473,-0.5475,-0.5477,-0.5599,-0.56,0,0,0,0,0,0,-0.5267,-0.5278,-0.5355,-0.5358,-0.5307,-0.5348,-0.5355,-0.5373,-0.5409,-0.5413,-0.5385,-0.5384,-0.5442,-0.5448,-0.5454,-0.5506,-0.5474,-0.5477,-0.5479,-0.5598,-0.5599,-0.5601,0,0,0,0,0,0,-0.5265,-0.5274,-0.5352,-0.5318,-0.5328,-0.5351,-0.5371,-0.5374,-0.5388,-0.5415,-0.5419,-0.5395,-0.5441,-0.5449,-0.5489,-0.5508,-0.5478,-0.5482,-0.5597,-0.5598,-0.56,-0.5609,0,0,0,0,0,0,-0.5262,-0.5273,-0.5289,-0.5318,-0.533,-0.5386,-0.5372,-0.5376,-0.5394,-0.5393,-0.5425,-0.543,-0.5441,-0.5484,-0.5493,-0.5512,-0.5484,-0.5595,-0.5597,-0.56,-0.5607,-0.5611,-0.5614,0,0,0,0,0,-0.5258,-0.529,-0.5289,-0.5299,-0.535,-0.5387,-0.5394,-0.5405,-0.5395,-0.5412,-0.5429,-0.5429,-0.5504,-0.5488,-0.5498,-0.5519,-0.5594,-0.5597,-0.5599,-0.5606,-0.561,-0.5614,0,0,0,0,0,0,-0.5263,-0.5294,-0.5294,-0.5336,-0.5358,-0.5387,-0.5408,-0.541,-0.5436,-0.5435,-0.5449,-0.5456,-0.5496,-0.5511,-0.5493,-0.5561,-0.5548,-0.5553,-0.555,-0.5554,-0.5558,-0.5553,-0.5487,0,0,0,0,0,-0.5268,-0.5295,-0.5321,-0.5355,-0.5367,-0.5385,-0.5402,-0.5409,-0.5434,-0.5444,-0.5463,-0.5488,-0.5518,-0.5537,-0.5565,-0.5609,-0.5617,-0.5628,-0.5632,-0.5634,-0.5639,-0.5664,-0.5669,-0.561,-0.561,-0.561,0,0,-0.5281,-0.5301,-0.5317,-0.5357,-0.5375,-0.5404,-0.5394,-0.5424,-0.5445,-0.5449,-0.5488,-0.5503,-0.5532,-0.5574,-0.5594,-0.5588,-0.5657,-0.5638,-0.564,-0.5643,-0.5667,-0.5673,-0.5678,-0.5611,-0.5611,-0.5611,0,0,-0.5317,-0.5335,-0.5366,-0.5384,-0.5412,-0.5424,-0.5432,-0.546,-0.547,-0.5509,-0.5512,-0.5538,-0.5589,-0.5609,-0.5626,-0.567,-0.5672,-0.5679,-0.5698,-0.5722,-0.5726,-0.5731,-0.5747,-0.5753,-0.5683,-0.5683,-0.5683,0,-0.533,-0.5371,-0.5382,-0.5412,-0.543,-0.5432,-0.5464,-0.5482,-0.5518,-0.5531,-0.5523,-0.5586,-0.5606,-0.5653,-0.5664,-0.5678,-0.5687,-0.5676,-0.5725,-0.5729,-0.5733,-0.5749,-0.5755,-0.5684,-0.5684,-0.5684,-0.5684,0,-0.5385,-0.5414,-0.5436,-0.5469,-0.5489,-0.552,-0.5536,-0.5555,-0.556,-0.5573,-0.5614,-0.5637,-0.567,-0.5682,-0.5688,-0.573,-0.5726,-0.5722,-0.5709,-0.5739,-0.5755,-0.5761,-0.5685,-0.5685,-0.5685,-0.5684,0,0,-0.5427,-0.5465,-0.5473,-0.5489,-0.5519,-0.5543,-0.5574,-0.5605,-0.5622,-0.5647,-0.5674,-0.5716,-0.5712,-0.5731,-0.5739,-0.576,-0.5794,-0.5753,-0.5754,-0.5761,-0.5844,-0.5847,-0.5854,-0.5795,-0.5796,-0.5797,-0.5842,0,-0.5468,-0.5522,-0.5532,-0.558,-0.5608,-0.5611,-0.5638,-0.566,-0.5673,-0.5699,-0.5714,-0.5744,-0.5736,-0.5748,-0.5769,-0.5786,-0.5812,-0.5783,-0.5822,-0.5823,-0.5815,-0.5862,-0.5866,-0.5906,-0.5847,-0.5848,-0.5849,0,-0.5523,-0.5548,-0.5598,-0.5625,-0.5637,-0.5661,-0.5691,-0.5715,-0.5741,-0.5749,-0.577,-0.5776,-0.5809,-0.5794,-0.5841,-0.5821,-0.5838,-0.5849,-0.5851,-0.5855,-0.5838,-0.5868,-0.592,-0.5926,-0.5859,-0.5858,-0.5857,0,-0.5549,-0.5596,-0.5632,-0.5645,-0.5677,-0.5694,-0.5708,-0.5733,-0.5751,-0.5778,-0.579,-0.582,-0.5837,-0.586,-0.5874,-0.5862,-0.592,-0.5906,-0.5929,-0.5928,-0.5941,-0.5941,-0.5997,-0.5951,-0.5951,-0.5951,-0.5951,0,-0.5594,-0.5625,-0.5644,-0.5666,-0.5701,-0.5712,-0.5747,-0.5761,-0.5783,-0.5809,-0.5814,-0.5838,-0.5854,-0.5881,-0.5892,-0.593,-0.5937,-0.5945,-0.5948,-0.5945,-0.5944,-0.5957,-0.5955,-0.5952,-0.5952,-0.5952,-0.5951,0,-0.563,-0.5643,-0.5683,-0.571,-0.5717,-0.5742,-0.5766,-0.5788,-0.5801,-0.5833,-0.5842,-0.5862,-0.5894,-0.591,-0.595,-0.5957,-0.6,-0.6,-0.5991,-0.5992,-0.6014,-0.6012,-0.608,-0.609,-0.6037,-0.6038,-0.6038,0,-0.5658,-0.5682,-0.5711,-0.5728,-0.5742,-0.577,-0.5788,-0.58,-0.582,-0.585,-0.5869,-0.5901,-0.5927,-0.5978,-0.5997,-0.6028,-0.603,-0.6052,-0.6035,-0.6031,-0.6031,-0.603,-0.6032,-0.6055,-0.6056,-0.6056,-0.6056,0,-0.5707,-0.5712,-0.5738,-0.5766,-0.5788,-0.5811,-0.5834,-0.5848,-0.5864,-0.5885,-0.5917,-0.5937,-0.5978,-0.601,-0.6041,-0.6057,-0.606,-0.6061,-0.6068,-0.6066,-0.606,-0.6064,-0.6,-0.606,-0.606,-0.6059,-0.6059,-0.6059,-0.574,-0.5761,-0.5785,-0.5813,-0.5831,-0.5853,-0.5875,-0.589,-0.5916,-0.5949,-0.5955,-0.5989,-0.6015,-0.6058,-0.6074,-0.6102,-0.6097,-0.6107,-0.611,-0.6112,-0.6114,-0.6055,-0.6108,-0.6108,-0.6108,-0.6108,-0.6108,0,-0.579,-0.5805,-0.5831,-0.5862,-0.5885,-0.5883,-0.5908,-0.5928,-0.5958,-0.598,-0.6006,-0.6043,-0.6074,-0.6095,-0.6126,-0.6144,-0.6146,-0.6152,-0.6152,-0.6155,-0.6116,-0.6107,-0.615,-0.615,-0.615,-0.615,-0.615,-0.615,-0.5818,-0.5854,-0.5862,-0.5907,-0.5922,-0.5955,-0.5969,-0.5989,-0.6007,-0.6048,-0.6073,-0.6086,-0.6109,-0.6142,-0.617,-0.6176,-0.6188,-0.6194,-0.6199,-0.6162,-0.6158,-0.6154,-0.6145,-0.6196,-0.6196,-0.6237,-0.6237,-0.6237]},{"header":{"parameterUnit":"m.s-1","parameterCategory":1,"la1":30.2991,"la2":30.254,"lo1":-89.0895,"lo2":-89.0444,"dy":0.0017,"dx":0.0017,"nx":28,"ny":28,"refTime":"2025-03-13T09:00:00:Z","depth":0,"parameterNumber":3,"parameterNumberName":"V-component_of_WINDS"},"data":[0,0,0,0,0,0,0,0,0,0,0,0,0,0,0,0,0,0,0,0,0,0,0,0,0,0,0,0,0,0,0,0,0,0,0,0,0,0,0,0,0,0,0,0,0,0,0,0,0,0,0,0,0,0,0,0,0,0,5.2262,5.2263,0,5.2341,5.2342,5.2342,5.2306,5.2304,5.2303,5.2301,5.238,5.2383,5.2387,0,0,0,0,0,0,0,0,0,0,0,0,0,5.2079,5.2082,5.2262,5.2263,5.2264,5.2341,5.2342,5.2343,5.2307,5.2304,5.2302,5.23,5.2378,5.2383,5.2388,0,0,0,0,0,0,0,0,0,0,0,0,0,5.2158,5.2083,5.2262,5.2255,5.2255,5.234,5.2342,5.2343,5.2307,5.2304,5.2301,5.2299,5.2377,5.2382,5.2388,5.2484,0,0,5.2406,5.2409,0,0,0,0,0,0,0,0,5.2153,5.2165,5.2255,5.2256,5.2256,5.2311,5.2306,5.239,5.2308,5.2288,5.2301,5.2297,5.2359,5.2366,5.2387,5.2487,5.2491,5.2407,5.241,5.2413,5.2415,0,0,0,0,0,0,0,5.2148,5.2161,5.2293,5.2257,5.2257,5.2248,5.2256,5.2322,5.2339,5.2289,5.2287,5.2297,5.2359,5.2382,5.2389,5.2492,5.2407,5.2412,5.2415,5.2418,5.2675,5.2678,0,0,0,0,0,0,5.2143,5.2157,5.229,5.2295,5.2197,5.2254,5.2262,5.2296,5.2338,5.2341,5.2299,5.2295,5.2373,5.2382,5.2391,5.2507,5.2413,5.2418,5.2422,5.2671,5.2675,5.2679,0,0,0,0,0,0,5.2139,5.2155,5.2287,5.2225,5.2242,5.226,5.2298,5.2299,5.2322,5.2345,5.2348,5.232,5.2371,5.2383,5.2461,5.2509,5.2421,5.2426,5.2668,5.2673,5.2677,5.2737,0,0,0,0,0,0,5.2134,5.2154,5.2191,5.2227,5.2245,5.2356,5.2301,5.2303,5.2333,5.2328,5.2366,5.2369,5.237,5.2453,5.2467,5.2515,5.2431,5.2663,5.267,5.2676,5.2731,5.2744,5.2755,0,0,0,0,0,5.2127,5.2204,5.2193,5.2209,5.2292,5.2359,5.237,5.237,5.2337,5.2374,5.2389,5.2368,5.2501,5.2461,5.2477,5.2528,5.266,5.2668,5.2675,5.2726,5.2741,5.2754,0,0,0,0,0,0,5.2173,5.2209,5.2197,5.2287,5.2321,5.2353,5.24,5.2386,5.2429,5.2422,5.242,5.2428,5.251,5.2526,5.2481,5.2623,5.2576,5.2587,5.2609,5.2624,5.2635,5.263,5.2436,0,0,0,0,0,5.2193,5.2246,5.2274,5.2351,5.2369,5.2381,5.2411,5.2408,5.2442,5.2456,5.2477,5.251,5.256,5.2592,5.2639,5.2733,5.2741,5.2776,5.2788,5.2797,5.2807,5.2859,5.2875,5.2703,5.2703,5.2703,0,0,5.2236,5.2262,5.2295,5.2361,5.2386,5.2441,5.2394,5.2453,5.2493,5.2465,5.254,5.2557,5.2594,5.2681,5.272,5.2697,5.2856,5.2806,5.2814,5.2819,5.2868,5.2884,5.2899,5.2708,5.2707,5.2707,0,0,5.2342,5.2367,5.2434,5.2461,5.2501,5.2509,5.2525,5.256,5.257,5.2646,5.2626,5.2674,5.2759,5.2787,5.2812,5.2929,5.2911,5.2944,5.3005,5.3056,5.3069,5.3081,5.3124,5.3139,5.2953,5.2954,5.2954,0,5.239,5.2472,5.2471,5.2532,5.2561,5.2539,5.2607,5.2633,5.2686,5.2706,5.268,5.2787,5.2811,5.2904,5.2933,5.2954,5.2972,5.294,5.3067,5.3079,5.3091,5.3131,5.3147,5.2957,5.2957,5.2957,5.2956,0,5.253,5.2586,5.2636,5.2689,5.2723,5.2788,5.2796,5.2831,5.2825,5.2836,5.2914,5.2941,5.2994,5.3015,5.301,5.3108,5.3093,5.3067,5.302,5.3111,5.3149,5.3165,5.2963,5.2961,5.296,5.2959,0,0,5.2667,5.2718,5.2736,5.276,5.2802,5.2846,5.2909,5.2961,5.2992,5.3029,5.3082,5.3155,5.3132,5.316,5.3158,5.3202,5.3294,5.3171,5.3172,5.3194,5.3406,5.3426,5.3444,5.3283,5.3285,5.3288,5.3403,0,5.2777,5.2889,5.2889,5.2992,5.3045,5.3025,5.308,5.3111,5.3123,5.3169,5.3182,5.3234,5.3199,5.3216,5.3259,5.3274,5.3337,5.3265,5.3332,5.3335,5.3325,5.3464,5.3485,5.3592,5.3418,5.342,5.3422,0,5.292,5.2963,5.3071,5.3107,5.3129,5.3179,5.3227,5.3271,5.3306,5.3312,5.3344,5.3335,5.3399,5.335,5.3439,5.339,5.3417,5.3429,5.3433,5.344,5.3385,5.3476,5.3627,5.3643,5.3445,5.3444,5.3442,0,5.3011,5.3095,5.3171,5.3192,5.3235,5.327,5.329,5.3322,5.3354,5.3395,5.3416,5.3464,5.3491,5.3528,5.3532,5.3496,5.3622,5.3573,5.3629,5.3629,5.3657,5.3656,5.3816,5.3673,5.3673,5.3672,5.3672,0,5.3134,5.3202,5.3213,5.326,5.3334,5.3334,5.3408,5.3424,5.3454,5.3503,5.3488,5.3535,5.3536,5.3584,5.3587,5.3661,5.3673,5.3679,5.368,5.3682,5.3681,5.37,5.3693,5.3677,5.3676,5.3675,5.3674,0,5.3248,5.3258,5.334,5.3374,5.3384,5.3438,5.3467,5.3512,5.3522,5.3585,5.3599,5.3615,5.3671,5.3679,5.3743,5.3745,5.3835,5.3826,5.3823,5.3822,5.3878,5.3874,5.4058,5.4082,5.3922,5.3924,5.3925,0,5.3327,5.3379,5.3418,5.3451,5.3472,5.3525,5.3557,5.3558,5.3593,5.3637,5.3677,5.3731,5.3775,5.3864,5.3882,5.3931,5.3925,5.3986,5.3932,5.3933,5.3927,5.3925,5.393,5.3997,5.3998,5.4,5.4001,0,5.3466,5.3469,5.3516,5.3566,5.3605,5.3644,5.368,5.3708,5.3714,5.3753,5.381,5.3844,5.3911,5.3965,5.4014,5.4033,5.4019,5.4018,5.4033,5.4037,5.4033,5.4037,5.3853,5.4014,5.4012,5.4011,5.4011,5.401,5.3566,5.3611,5.3647,5.37,5.3728,5.3763,5.3807,5.3823,5.3871,5.3925,5.3923,5.3986,5.4021,5.4085,5.4108,5.4158,5.4138,5.416,5.4166,5.4172,5.4178,5.4024,5.4166,5.4166,5.4166,5.4165,5.4165,0,5.3705,5.3727,5.3776,5.3828,5.3871,5.3853,5.3893,5.3929,5.3985,5.4019,5.4062,5.4128,5.4181,5.4203,5.4254,5.429,5.4284,5.4303,5.4301,5.4306,5.4193,5.4174,5.4307,5.4307,5.4307,5.4307,5.4307,5.4307,5.3783,5.3859,5.3866,5.3955,5.3976,5.4039,5.4063,5.4095,5.4122,5.4197,5.4241,5.4254,5.4284,5.4337,5.4385,5.439,5.441,5.4433,5.4435,5.4328,5.4314,5.43,5.4283,5.4437,5.4437,5.4544,5.4545,5.4546]}]]